VIR388 EINN-BIKF

Flight info

Callsign VIR388
Flight time N/A
Altitude 31000
Route ERABI3B ERABI DCT OSBOX DCT AGORI/M079F400 DCT 61N017W DCT BREKI DCT BASLU BASLU4N
Aircraft A343/H-SDE2E3FGHIJ4J5M1RWXY/LB1D1

Departure

Time 2026-05-07 19:49
Airport Shannon Airport (EINN)

Arrival

Time N/A
Airport Keflavik International Airport (BIKF)
Time Latitude Longitude Altitude Speed Heading
2026-05-07 19:03 52.69379 -8.92064 25 ft 0 kts 191°
2026-05-07 19:32 52.69391 -8.92060 31 ft 2 kts 189°
2026-05-07 19:33 52.69408 -8.92055 30 ft 3 kts 189°
2026-05-07 19:33 52.69432 -8.92051 28 ft 3 kts 166°
2026-05-07 19:33 52.69435 -8.92049 28 ft 1 kts 143°
2026-05-07 19:33 52.69422 -8.92033 30 ft 4 kts 143°
2026-05-07 19:34 52.69396 -8.92002 29 ft 6 kts 143°
2026-05-07 19:34 52.69387 -8.91974 30 ft 0 kts 96°
2026-05-07 19:34 52.69395 -8.91916 29 ft 17 kts 84°
2026-05-07 19:35 52.69336 -8.91729 27 ft 20 kts 132°
2026-05-07 19:35 52.69298 -8.91544 29 ft 9 kts 70°
2026-05-07 19:35 52.69343 -8.91489 26 ft 8 kts 20°
2026-05-07 19:35 52.69405 -8.91454 24 ft 11 kts 19°
2026-05-07 19:36 52.69481 -8.91409 22 ft 13 kts 20°
2026-05-07 19:36 52.69571 -8.91356 21 ft 15 kts 18°
2026-05-07 19:36 52.69675 -8.91300 22 ft 17 kts 18°
2026-05-07 19:36 52.69791 -8.91235 19 ft 19 kts 19°
2026-05-07 19:37 52.69920 -8.91163 18 ft 20 kts 19°
2026-05-07 19:37 52.70060 -8.91084 16 ft 22 kts 19°
2026-05-07 19:37 52.70212 -8.91000 15 ft 24 kts 18°
2026-05-07 19:37 52.70371 -8.90913 14 ft 25 kts 19°
2026-05-07 19:38 52.70541 -8.90820 12 ft 18 kts 18°
2026-05-07 19:38 52.70640 -8.90764 11 ft 6 kts 19°
2026-05-07 19:38 52.70691 -8.90735 11 ft 9 kts 19°
2026-05-07 19:38 52.70718 -8.90720 11 ft 1 kts 18°
2026-05-07 19:39 52.70733 -8.90711 10 ft 4 kts 19°
2026-05-07 19:39 52.70767 -8.90693 10 ft 6 kts 17°
2026-05-07 19:39 52.70786 -8.90683 10 ft 0 kts 17°
2026-05-07 19:40 52.70788 -8.90683 10 ft 1 kts 17°
2026-05-07 19:41 52.70805 -8.90675 10 ft 4 kts 14°
2026-05-07 19:41 52.70840 -8.90669 10 ft 6 kts
2026-05-07 19:41 52.70886 -8.90693 9 ft 8 kts 332°
2026-05-07 19:41 52.70889 -8.90696 9 ft 0 kts 329°
2026-05-07 19:44 52.70895 -8.90701 10 ft 5 kts 330°
2026-05-07 19:44 52.70911 -8.90716 9 ft 0 kts 330°
2026-05-07 19:44 52.70939 -8.90744 9 ft 11 kts 327°
2026-05-07 19:45 52.70964 -8.90829 9 ft 7 kts 264°
2026-05-07 19:45 52.70944 -8.90894 9 ft 7 kts 235°
2026-05-07 19:45 52.70939 -8.90904 9 ft 0 kts 234°
2026-05-07 19:48 52.70921 -8.90944 9 ft 27 kts 232°
2026-05-07 19:48 52.70618 -8.91587 13 ft 112 kts 232°
2026-05-07 19:48 52.69995 -8.92889 164 ft 171 kts 233°
2026-05-07 19:48 52.69193 -8.94596 584 ft 200 kts 233°
2026-05-07 19:49 52.68545 -8.96686 1316 ft 215 kts 263°
2026-05-07 19:49 52.68897 -8.99086 2305 ft 224 kts 298°
2026-05-07 19:49 52.69795 -9.01221 3322 ft 230 kts 301°
2026-05-07 19:49 52.70661 -9.03489 4241 ft 240 kts 296°
2026-05-07 19:50 52.71443 -9.06024 4816 ft 264 kts 292°
2026-05-07 19:50 52.72245 -9.08974 5005 ft 302 kts 295°
2026-05-07 19:50 52.73618 -9.11929 4966 ft 345 kts 312°
2026-05-07 19:50 52.75333 -9.14673 5757 ft 346 kts 314°
2026-05-07 19:51 52.77072 -9.17481 5266 ft 346 kts 313°